Vorticity
nan nan nan nan nan nan nan nan nan nan nan nan nan nan nan nan nan nan nan nan nan nan nan nan nan nan nan nan nan nan nan nan nan nan nan nan nan nan nan nan nan nan nan nan nan
nan 6 6 6 7 7 7 7 7 7 7 7 7 8 8 13 18 9 13 9 6 5 7 7 9 8 7 12 1 7 10 12 1 7 11 6 3 7 14 9 7 14 6 10 nan
nan 6 6 6 6 6 6 7 7 7 7 8 8 8 9 12 16 19 14 4 5 3 2 5 9 10 10 10 6 7 6 12 8 9 2 -0 6 10 16 16 9 2 5 6 nan
nan 7 7 7 7 7 7 7 7 8 8 8 9 9 13 12 8 17 9 8 5 5 6 6 8 8 7 9 14 5 19 9 11 5 6 7 0 9 15 11 11 4 0 7 nan
nan 7 7 7 7 7 8 8 8 8 9 9 10 11 14 11 11 11 9 9 4 7 6 4 6 7 5 7 11 6 20 9 11 9 10 10 -3 2 11 10 10 9 4 5 nan
nan 7 8 8 8 8 8 8 7 8 10 11 11 12 10 6 16 11 7 4 6 5 5 6 7 8 11 12 10 9 3 8 10 8 6 2 8 6 6 9 15 7 7 5 nan
nan 7 8 8 8 8 9 7 8 9 11 12 12 9 7 11 7 10 5 3 8 4 4 6 7 6 11 21 10 7 -2 13 8 6 6 0 5 8 3 13 24 12 4 6 nan
nan 8 7 8 8 10 9 7 8 11 12 16 10 8 7 10 9 10 6 7 9 3 5 4 12 12 11 10 2 5 8 9 -4 8 12 5 5 4 5 3 7 16 11 5 nan
nan 7 7 8 10 11 9 10 15 14 15 11 5 6 8 8 10 10 10 8 8 7 7 7 9 9 8 8 7 8 5 10 11 5 4 5 5 12 0 5 7 7 7 4 nan
nan 9 8 8 9 10 17 24 15 16 17 3 3 8 18 12 10 7 5 10 12 9 8 8 8 7 6 8 9 8 7 7 9 9 13 4 5 12 7 6 5 7 7 5 nan
nan 7 8 8 9 10 19 20 8 10 11 5 1 10 10 9 9 10 11 8 8 9 8 8 7 6 5 3 5 6 7 10 11 6 13 9 9 10 7 5 7 6 7 8 nan
nan 8 9 10 9 17 15 4 2 4 16 12 2 6 11 8 3 11 6 9 9 6 4 9 7 5 7 8 9 12 1 1 4 17 15 7 10 13 9 7 5 6 8 7 nan
nan 9 9 8 24 24 9 -0 5 11 10 17 23 9 6 6 11 11 5 5 6 8 9 8 7 8 5 8 8 10 16 10 8 10 9 10 10 10 8 7 7 6 8 7 nan
nan 9 6 21 23 10 13 11 5 8 13 19 13 12 9 6 16 11 5 5 7 8 13 4 8 13 13 8 14 12 14 5 7 10 13 4 9 11 15 6 5 5 9 6 nan
nan 10 15 22 12 6 1 7 14 12 17 18 7 7 7 9 12 6 5 8 6 8 16 9 9 12 15 8 7 7 8 8 9 7 10 8 13 15 12 8 10 9 4 6 nan
nan 7 20 20 11 5 3 12 13 12 12 10 10 7 7 9 7 10 8 7 8 13 9 6 6 14 8 8 6 9 9 9 8 7 6 13 12 13 9 12 10 10 8 7 nan
nan 12 17 9 5 3 14 18 12 6 9 14 9 8 5 11 7 7 7 5 6 9 9 11 8 9 6 8 10 9 5 10 8 13 5 5 14 16 12 15 16 11 10 9 nan
nan 31 26 8 4 4 11 11 10 9 8 5 9 10 13 14 7 7 6 6 9 8 11 13 16 11 9 9 12 11 8 4 7 6 5 7 11 11 5 12 24 26 17 8 nan
nan 31 11 12 12 7 11 9 8 -0 2 18 11 6 13 6 9 11 7 9 13 9 8 10 18 14 10 8 5 10 12 9 8 9 9 4 6 3 0 0 10 26 25 10 nan
nan 13 12 15 13 5 8 7 1 -1 4 10 7 10 12 13 8 8 9 10 10 9 8 8 10 12 12 10 11 11 2 10 15 13 10 12 10 2 -1 3 5 4 11 20 nan
nan 11 21 19 3 6 6 5 4 4 13 6 8 8 9 12 8 8 12 17 10 8 6 10 8 11 9 6 12 8 15 15 12 8 11 8 10 12 3 8 8 6 11 31 nan
nan 9 14 15 3 7 7 1 2 7 12 8 9 9 8 11 17 8 10 8 8 10 9 12 9 13 7 4 7 14 13 11 5 10 10 10 10 11 3 4 4 7 15 24 nan
nan 10 12 10 6 5 9 7 4 9 11 9 8 6 6 9 9 13 11 6 7 11 9 9 10 4 3 10 15 12 7 9 10 16 9 5 7 5 7 2 7 19 25 3 nan
nan 11 16 9 10 8 9 11 12 13 10 8 8 6 10 8 6 9 10 10 5 9 9 9 11 9 9 9 7 6 8 7 8 7 10 7 13 8 12 11 7 -1 12 16 nan
nan 6 8 8 3 10 18 13 7 10 19 8 7 12 10 7 9 12 15 12 10 3 4 5 6 7 13 14 9 7 14 13 11 8 14 11 8 10 9 6 4 13 10 12 nan
nan 8 8 10 8 10 16 19 10 6 10 14 7 8 8 7 7 8 13 14 15 11 6 7 10 10 9 17 16 2 8 12 10 10 12 13 8 15 9 11 8 9 9 8 nan
nan nan nan nan nan nan nan nan nan nan nan nan nan nan nan nan nan nan nan nan nan nan nan nan nan nan nan nan nan nan nan nan nan nan nan nan nan nan nan nan nan nan nan nan nan
CAPE
3 3 3 3 3 3 3 3 3 3 2 2 3 3 2 1 0 0 0 0 0 0 0 0 0 0 0 0 240 188 109 0 28 2 111 202 220 353 138 68 67 66 58 0 190
2 2 2 3 2 3 2 3 3 3 2 2 4 3 2 0 0 0 0 0 0 0 0 0 0 0 0 0 43 2 11 3 0 16 87 72 99 330 270 110 61 76 35 21 98
4 2 1 0 0 0 0 0 0 0 2 4 3 2 1 0 0 0 0 0 0 0 0 0 0 0 0 24 153 88 2 39 0 0 3 54 73 228 174 138 98 97 32 28 56
0 1 0 0 1 0 2 2 1 0 0 1 2 2 0 0 0 0 0 0 0 0 0 0 0 0 0 3 25 469 379 158 287 8 16 33 78 70 121 201 121 99 32 47 58
0 0 0 0 0 0 3 3 3 2 3 3 2 1 0 0 0 0 0 0 0 0 0 0 0 0 0 1 235 452 545 240 142 152 70 35 114 394 130 100 110 44 58 23 15
0 0 0 0 0 0 4 4 2 2 2 3 1 0 0 0 0 0 0 0 0 0 0 0 0 0 0 45 51 228 17 273 211 377 119 127 327 251 193 128 93 21 4 72 20
1 1 0 0 1 1 3 1 1 1 1 3 0 0 0 0 0 0 0 0 0 0 0 0 0 0 0 13 56 9 52 146 701 490 252 172 7 55 88 81 130 15 23 52 58
1 0 1 1 0 3 2 1 0 0 0 0 0 0 0 0 0 0 0 0 0 0 0 0 0 0 0 92 201 384 487 354 91 1 351 159 46 37 33 85 109 94 41 56 36
1 1 1 0 2 3 1 0 0 0 0 0 0 0 0 0 0 0 0 0 0 0 0 0 0 0 0 0 8 7 83 301 93 37 9 292 171 43 0 35 78 6 0 28 110
0 2 1 4 4 2 0 0 0 0 0 0 0 0 0 0 0 0 0 0 0 0 0 0 0 0 0 0 6 59 61 27 14 169 160 307 341 37 0 4 5 23 22 28 69
0 1 3 4 3 1 0 0 0 0 0 0 0 0 0 0 0 0 0 0 0 0 0 0 0 0 0 0 5 63 38 182 41 50 748 538 436 65 0 0 0 37 19 13 17
2 1 1 1 1 2 0 0 0 0 0 0 0 0 0 0 0 0 0 0 0 0 0 0 0 0 0 0 1 63 61 424 213 383 322 634 544 206 0 0 0 13 11 37 75
1 0 0 0 0 0 0 0 0 0 0 0 0 0 0 0 0 0 0 0 0 0 0 0 0 0 0 0 0 26 40 172 55 72 159 416 424 641 59 23 0 0 1 35 90
0 0 0 1 0 0 0 0 0 0 0 0 0 0 0 0 0 0 0 0 0 0 0 0 0 0 0 0 0 13 4 158 239 127 48 59 46 608 334 123 0 0 0 6 28
0 0 0 2 0 0 0 0 0 0 0 0 0 0 0 0 0 0 0 0 0 0 0 0 0 0 0 0 0 0 9 18 38 6 6 9 94 270 301 162 44 0 0 0 4
0 0 0 0 0 0 0 0 0 0 0 0 0 0 0 0 0 0 0 0 0 0 0 0 0 0 0 0 0 0 30 27 29 5 23 76 19 430 436 506 361 33 0 0 10
0 0 0 0 0 0 0 0 0 0 0 0 0 0 0 0 0 0 0 0 0 0 0 0 0 0 0 0 0 0 0 0 34 83 69 41 47 281 557 455 351 155 48 0 0
0 0 0 0 0 0 0 0 0 0 2 0 0 0 0 0 0 0 0 0 0 0 0 0 0 0 0 0 0 0 0 0 33 7 14 19 199 255 0 0 72 143 196 0 0
0 0 0 0 0 0 0 0 0 0 0 0 0 0 0 0 0 0 0 0 0 0 0 0 0 0 0 0 0 0 0 0 0 0 35 105 203 114 0 0 0 0 347 200 0
0 0 0 0 0 0 0 0 0 0 0 0 0 0 6 2 0 0 0 0 0 0 0 0 0 4 0 0 0 0 0 0 57 78 41 139 80 1 0 0 1 0 0 19 16
0 0 0 0 0 0 0 0 0 0 0 0 0 0 0 14 4 1 6 0 0 0 0 0 0 10 0 6 6 1 0 89 70 92 116 89 58 0 0 0 2 0 1 4 44
0 0 0 0 0 0 0 0 0 0 0 0 0 0 0 0 3 3 29 1 0 0 0 0 0 0 1 8 1 15 0 31 25 54 8 55 73 43 3 0 0 2 95 330 677
0 0 0 0 0 0 0 0 0 0 0 0 0 0 0 0 0 0 7 0 0 0 0 0 0 0 13 0 5 3 0 32 10 20 70 0 26 17 6 2 0 12 118 0 876
0 0 0 0 0 0 0 0 0 0 0 0 0 0 0 0 0 0 5 0 0 0 0 0 0 0 0 14 34 5 0 4 6 0 1 4 9 1 4 23 0 114 463 545 620
0 0 0 0 0 0 0 0 0 0 0 0 0 0 0 0 0 0 0 0 0 22 0 0 0 0 0 63 6 1 0 2 1 28 39 77 0 0 0 1 188 510 633 954 834
0 0 0 0 0 0 0 0 0 0 0 4 0 0 0 0 0 1 0 2 0 0 0 0 0 0 0 3 5 15 27 73 0 0 22 38 9 18 0 25 524 464 490 522 355
0 0 0 0 0 0 0 0 0 0 0 6 0 0 0 0 0 0 0 0 0 3 9 4 1 0 0 13 71 38 23 72 10 3 1 13 242 12 72 724 546 626 384 386 158